Weather History for 94578 - July, 2013

Change the Weather History Date:

Thursday, July 4, 2013

  Actual Average Record
Temperature  
Mean Temperature 66 °F -  
Max Temperature 72 °F 69 °F - ()
Min Temperature 59 °F 49 °F - ()
Growing Degree Days 16 (Base 50)    
Moisture  
Dew Point 57 °F    
Average Humidity 75    
Maximum Humidity 94    
Minimum Humidity 36    
Precipitation  
Precipitation 0.00 in 0.09 in - ()
Sea Level Pressure  
Sea Level Pressure 30.11 in    
Wind  
Wind Speed 5 mph ()    
Max Wind Speed 8 mph    
Max Gust Speed -    
Visibility 8.0 miles    
Events Rain    
T = Trace of Precipitation, MM = Missing Value Source: Averaged Metar Reports

Daily Weather History Graph

Daily Weather History Graph

Search for Another Location

Airport or City:

Trip Planner

Search our weather history database for the weather conditions in past years. The results will help you decide how hot, cold, wet, or windy it might be!

Date:

Astronomy

Jul. 04, 2013 Rise Set
Actual Time 6:38 AM AEST 5:05 PM AEST
Civil Twilight 6:12 AM AEST 5:31 PM AEST
Nautical Twilight 5:43 AM AEST 6:00 PM AEST
Astronomical Twilight 5:15 AM AEST 6:28 PM AEST
Moon 2:56 AM AEST (7/4) 1:58 PM AEST (7/4)
Length of Visible Light 11h 18m
Length of Day
10h 27m
Waning Crescent, 15% of the Moon is Illuminated
Jul 4
Waning Crescent
Jul 8
New
Jul 16
First Quarter
Jul 23
Full
Jul 30
Last Quarter

Hourly Weather History & Observations

Time (AEST) Temp. Dew Point Humidity Pressure Visibility Wind Dir Wind Speed Gust Speed Precip Events Conditions
12:00 AM 64 °F 59 °F 80% 30.19 in 6 mi SE 6.9 mph - - Rain Light Rain Showers
12:00 AM 64.4 °F 59.0 °F 83% 30.18 in 5.6 mi SE 6.9 mph - N/A Rain Light Rain Showers
12:30 AM 62.6 °F 59.0 °F 88% 30.15 in 6.2 mi SSE 5.8 mph - N/A   Mostly Cloudy
1:00 AM 63 °F 60 °F 88% 30.18 in - SSE 6.9 mph - -  
1:00 AM 62.6 °F 60.8 °F 94% 30.15 in 6.2 mi SSE 6.9 mph - N/A   Mostly Cloudy
1:30 AM 62.6 °F 59.0 °F 88% 30.15 in 6.2 mi South 6.9 mph - N/A   Mostly Cloudy
2:00 AM 62.6 °F 59.0 °F 88% 30.15 in 6.2 mi South 5.8 mph - N/A   Mostly Cloudy
2:30 AM 62.6 °F 59.0 °F 88% 30.15 in 6.2 mi SSW 5.8 mph - N/A   Mostly Cloudy
3:00 AM 63 °F 59 °F 84% 30.16 in 16 mi South 4.6 mph - -   Overcast
3:00 AM 62.6 °F 59.0 °F 88% 30.15 in 6.2 mi South 4.6 mph - N/A   Mostly Cloudy
3:30 AM 62.6 °F 59.0 °F 88% 30.15 in 6.2 mi SSW 5.8 mph - N/A   Mostly Cloudy
4:00 AM 62 °F 60 °F 89% 30.15 in - SSW 5.8 mph - -  
4:00 AM 62.6 °F 59.0 °F 88% 30.12 in 6.2 mi SSW 5.8 mph - N/A   Mostly Cloudy
4:30 AM 62.6 °F 60.8 °F 94% 30.12 in 6.2 mi SSW 4.6 mph - N/A   Mostly Cloudy
5:00 AM 60.8 °F 59.0 °F 94% 30.12 in 6.2 mi SSW 5.8 mph - N/A   Mostly Cloudy
5:30 AM 62.6 °F 59.0 °F 88% 30.15 in 6.2 mi SSW 5.8 mph - N/A   Mostly Cloudy
6:00 AM 61 °F 60 °F 93% 30.15 in 16 mi SSW 5.8 mph - -   Partly Cloudy
6:00 AM 60.8 °F 59.0 °F 94% 30.15 in 6.2 mi SSW 5.8 mph - N/A   Mostly Cloudy
6:30 AM 60.8 °F 59.0 °F 94% 30.15 in 6.2 mi SSW 5.8 mph - N/A   Mostly Cloudy
7:00 AM 62 °F 59 °F 88% 30.17 in - SSW 5.8 mph - -  
7:00 AM 60.8 °F 59.0 °F 94% 30.15 in 6.2 mi SSW 5.8 mph - N/A   Mostly Cloudy
7:30 AM 62.6 °F 59.0 °F 88% 30.15 in 6.2 mi SSW 5.8 mph - N/A   Scattered Clouds
8:00 AM 64.4 °F 59.0 °F 83% 30.15 in 6.2 mi SSW 8.1 mph - N/A   Scattered Clouds
8:30 AM 64.4 °F 59.0 °F 83% 30.15 in 6.2 mi SSW 8.1 mph - N/A   Scattered Clouds
9:00 AM 67 °F 59 °F 67% 30.18 in 19 mi SSW 6.9 mph - -   Partly Cloudy
9:00 AM 66.2 °F 59.0 °F 78% 30.18 in 6.2 mi SSW 6.9 mph - N/A   Scattered Clouds
9:30 AM 68.0 °F 57.2 °F 68% 30.18 in 6.2 mi SSW 6.9 mph - N/A   Scattered Clouds
10:00 AM 70 °F 55 °F 49% 30.18 in - South 5.8 mph - -  
10:00 AM 69.8 °F 55.4 °F 60% 30.15 in 6.2 mi South 5.8 mph - N/A   Partly Cloudy
10:30 AM 71.6 °F 51.8 °F 50% 30.15 in 6.2 mi SE 3.5 mph - N/A   Partly Cloudy
11:00 AM 71.6 °F 51.8 °F 50% 30.15 in 6.2 mi SE 6.9 mph - N/A   Partly Cloudy
11:30 AM 71.6 °F 50.0 °F 46% 30.12 in 6.2 mi SE 5.8 mph - N/A   Partly Cloudy
12:00 PM 72 °F 51 °F 37% 30.12 in 19 mi SE 5.8 mph - -   Partly Cloudy
12:00 PM 71.6 °F 51.8 °F 50% 30.09 in 6.2 mi SE 5.8 mph - N/A   Partly Cloudy
12:30 PM 71.6 °F 50.0 °F 46% 30.09 in 6.2 mi NNE 6.9 mph - N/A   Partly Cloudy
1:00 PM 72 °F 51 °F 36% 30.08 in - NE 8.1 mph - -  
1:00 PM 71.6 °F 50.0 °F 46% 30.06 in 6.2 mi NE 8.1 mph - N/A   Partly Cloudy
1:30 PM 71.6 °F 50.0 °F 46% 30.06 in 6.2 mi NE 6.9 mph - N/A   Partly Cloudy
2:00 PM 71.6 °F 51.8 °F 50% 30.04 in 6.2 mi NE 6.9 mph - N/A   Partly Cloudy
2:30 PM 71.6 °F 53.6 °F 53% 30.04 in 6.2 mi NE 8.1 mph - N/A   Partly Cloudy
3:00 PM 70 °F 54 °F 47% 30.05 in 19 mi NE 8.1 mph - -   Partly Cloudy
3:00 PM 69.8 °F 53.6 °F 56% 30.04 in 6.2 mi NE 8.1 mph - N/A   Scattered Clouds
3:30 PM 71.6 °F 53.6 °F 53% 30.04 in 6.2 mi NE 8.1 mph - N/A   Scattered Clouds
4:00 PM 70 °F 54 °F 47% 30.05 in - ENE 6.9 mph - -  
4:00 PM 69.8 °F 53.6 °F 56% 30.04 in 6.2 mi ENE 6.9 mph - N/A   Partly Cloudy
4:30 PM 68.0 °F 55.4 °F 64% 30.04 in 6.2 mi NE 5.8 mph - N/A   Partly Cloudy
5:00 PM 66.2 °F 55.4 °F 68% 30.04 in 6.2 mi NE 5.8 mph - N/A   Partly Cloudy
5:30 PM 62.6 °F 57.2 °F 82% 30.04 in 6.2 mi NE 4.6 mph - N/A   Partly Cloudy
6:00 PM 62 °F 57 °F 78% 30.07 in 19 mi Calm Calm - -   Partly Cloudy
6:00 PM 62.6 °F 57.2 °F 82% 30.06 in - Calm Calm - N/A   Clear
6:30 PM 62.6 °F 57.2 °F 82% 30.06 in - NE 4.6 mph - N/A   Clear
7:00 PM 63 °F 58 °F 78% 30.08 in - NNE 3.5 mph - -  
7:00 PM 62.6 °F 57.2 °F 82% 30.06 in - NNE 3.5 mph - N/A   Clear
7:30 PM 62.6 °F 59.0 °F 88% 30.06 in - West 3.5 mph - N/A   Clear
8:00 PM 62.6 °F 59.0 °F 88% 30.06 in - Calm Calm - N/A   Clear
8:30 PM 64.4 °F 59.0 °F 83% 30.06 in - North 2.3 mph - N/A   Clear
9:00 PM 62 °F 58 °F 83% 30.08 in 16 mi NNE 2.3 mph - -   Partly Cloudy
9:00 PM 62.6 °F 59.0 °F 88% 30.06 in - North 2.3 mph - N/A   Clear
9:30 PM 60.8 °F 57.2 °F 88% 30.06 in - Calm Calm - N/A   Clear
10:00 PM 61 °F 56 °F 77% 30.08 in - NNW 2.3 mph - -  
10:00 PM 60.8 °F 55.4 °F 82% 30.06 in - NNW 2.3 mph - N/A   Clear
10:30 PM 59.0 °F 55.4 °F 88% 30.06 in - NW 3.5 mph - N/A   Clear
11:00 PM 59.0 °F 55.4 °F 88% 30.06 in - WNW 3.5 mph - N/A   Clear
11:30 PM 59.0 °F 55.4 °F 88% 30.06 in - WNW 4.6 mph - N/A   Clear